Погода в Вирджиния-Бич

США     36°50′59″N   75°58′37″W
темп.,
°C
ветер,
м/с
пор.,
м/с
влажн.,
%
обл.,
%
осадки,
мм/ч
давл.,
гПа
погр.,
м
16 июня, ср
ср1623:00+21з22660 0.0 101216
02:00+19з23700 0.0 101159
05:00+19сз34754 0.0 1011112
08:00+22сз46634 0.0 1012420
11:00+25сз45490 0.0 10131106
14:00+26с354559 0.0 10132003
17:00+24в335691 0.0 1013464
20:00+21вюв34680 0.0 1014125
17 июня, чт
чт1723:00+20юв247661 0.0 101596
02:00+20ююв24745 0.0 1014105
05:00+20св2274100 0.1 101451
08:00+22ссв356624 0.2 1015443
11:00+24св43520 0.0 10161271
14:00+23св435832 0.0 10171205
17:00+23св43550 0.0 10161203
20:00+20всв24705 0.0 1018214
18 июня, пт
пт1823:00+19в237551 0.0 1019125
02:00+18юв227820 0.0 101993
05:00+16з11820 0.0 102037
08:00+20зсз11660 0.0 1021173
11:00+25ююв224267 0.0 10191037
14:00+27ююв353819 0.0 10181683
17:00+27ююв564412 0.0 10171100
20:00+22ю5126296 0.0 1016334
19 июня, сб
сб1923:00+21ю6146231 0.0 1017473
02:00+21ююз6166413 0.0 1015589
05:00+21юз615745 0.0 1014527
08:00+23юз6147756 0.0 1013471
11:00+30зюз585293 0.0 1013789
14:00+31сз584696 0.0 10131586
17:00+32зюз494389 0.0 10101251
20:00+29юз41160100 0.0 1010390
20 июня, вс
вс2023:00+27юз51563100 0.0 1010514
02:00+27зюз51457100 0.0 1011660
05:00+25зюз41269100 0.3 1011439
08:00+25зюз4975100 0.9 1012474
11:00+28зюз5862100 0.3 1013756
14:00+31юз6852100 0.3 10111225
17:00+30юз7957100 0.0 10111147
20:00+25юз61272100 0.0 1012603